Device Time, [HADV] Knock Ret Cyl 1(°),[HADV] Knock Ret Cyl 2(°),[HADV] Knock Ret Cyl 3(°),[HADV] Knock Ret Cyl 4(°),Air Fuel Ratio(Measured)(:1),Barometric pressure (from vehicle)(psi),Engine Coolant Temperature(°F),Engine Load(Absolute)(%),Engine RPM(rpm),Fuel Rail Pressure(psi),Intake Air Temperature(°F),Throttle Position(Manifold)(%),Timing Advance(°),Turbo Boost & Vacuum Gauge(psi)
02-Jun-2019 17:14:48.838,0,0,0,0,14.57,13.92,179.6,33.73,2821.5,765.8,113,16.86,-3,-5.37
02-Jun-2019 17:14:49.017,0,0,0,0,14.41,13.92,179.6,41.57,2832,751.3,113,16.86,-3,-5.37
02-Jun-2019 17:14:49.219,0,0,0,0,14.41,13.92,179.6,41.57,2832,751.3,113,16.86,-3,-5.37
02-Jun-2019 17:14:49.418,0,0,0,0,14.41,13.92,179.6,41.57,2832,751.3,113,16.86,-3,-5.8
02-Jun-2019 17:14:49.619,0,0,0,0,14.41,13.92,179.6,41.57,2861,758.55,113,19.22,42,-5.8
02-Jun-2019 17:14:49.817,0,0,0,0,14.75,13.92,179.6,39.22,2861,758.55,113,19.22,42,-5.8
02-Jun-2019 17:14:50.019,0,0,0,0,14.75,13.92,179.6,39.22,2878,758.55,113,19.22,42.5,-6.24
02-Jun-2019 17:14:50.228,0,0,0,0,14.7,13.92,179.6,36.08,2878,758.55,113,18.82,42.5,-6.24
02-Jun-2019 17:14:50.421,0,0,0,0,14.7,13.92,179.6,36.08,2878,758.55,113,18.82,42.5,-6.24
02-Jun-2019 17:14:50.619,0,0,0,0,14.7,13.92,179.6,36.08,2913,755.65,113,18.43,45,-6.67
02-Jun-2019 17:14:50.826,0,0,0,0,14.38,13.92,179.6,33.73,2913,755.65,113,18.43,45,-6.67
02-Jun-2019 17:14:51.017,0,0,0,0,14.38,13.92,179.6,33.73,2913,755.65,113,18.43,45,-6.67
02-Jun-2019 17:14:51.217,0,0,0,0,14.53,13.92,179.6,33.73,2919.5,761.45,113,18.43,44,-6.67
02-Jun-2019 17:14:51.416,0,0,0,0,14.53,13.92,179.6,33.73,2919.5,761.45,113,18.43,44,-6.67
02-Jun-2019 17:14:51.618,0,0,0,0,14.53,13.92,179.6,33.73,2923,761.45,113,18.43,44,-6.67
02-Jun-2019 17:14:51.832,0,0,0,0,14.7,13.92,179.6,33.73,2923,757.1,113,18.43,44,-6.67
02-Jun-2019 17:14:52.020,0,0,0,0,14.7,13.92,179.6,33.73,2923,757.1,113,18.43,44,-6.67
02-Jun-2019 17:14:52.221,0,0,0,0,14.63,13.92,179.6,33.33,2934,755.65,113,18.82,45,-6.67
02-Jun-2019 17:14:52.417,0,0,0,0,14.63,13.92,179.6,33.33,2934,755.65,113,18.82,45,-6.67
02-Jun-2019 17:14:52.621,0,0,0,0,14.63,13.92,179.6,33.33,2934,755.65,113,18.82,45,-6.38
02-Jun-2019 17:14:52.820,0,0,0,0,14.63,13.92,179.6,33.33,2961.5,819.46,113,19.22,43.5,-6.38
02-Jun-2019 17:14:53.018,0,0,0,0,13.96,13.92,179.6,85.88,2961.5,819.46,113,19.22,43.5,-6.38
02-Jun-2019 17:14:53.229,0,0,0,0,13.96,13.92,179.6,85.88,2961.5,819.46,113,19.22,43.5,-6.38
02-Jun-2019 17:14:53.428,0,0,0,0,13.96,13.92,179.6,85.88,3115,1649.08,113,84.71,10.5,8.27
02-Jun-2019 17:14:53.618,0,189,0,0,12.2,13.92,179.6,192.16,3115,1649.08,113,84.71,10.5,8.27
02-Jun-2019 17:14:53.819,0,189,0,0,12.2,13.92,179.6,192.16,3324.5,1649.08,113,84.71,10.5,12.18
02-Jun-2019 17:14:54.027,0,189,0,0,11.71,13.92,179.6,185.88,3324.5,2404.73,113,84.31,7.5,12.18
02-Jun-2019 17:14:54.264,189,189,0,0,11.71,13.92,179.6,185.88,3324.5,2404.73,113,84.31,7.5,12.18
02-Jun-2019 17:14:54.419,189,189,0,0,11.71,13.92,179.6,185.88,3592.5,2404.73,113,84.31,7.5,13.05
02-Jun-2019 17:14:54.629,189,189,0,0,12.17,13.92,179.6,181.18,3592.5,2784.72,113,83.92,8,13.05
02-Jun-2019 17:14:54.828,189,189,0,0,12.17,13.92,179.6,181.18,3592.5,2784.72,113,83.92,8,13.05
02-Jun-2019 17:14:55.021,189,189,0,0,12.17,13.92,179.6,181.18,3909.5,2784.72,113,84.31,9.5,13.63
02-Jun-2019 17:14:55.217,189,189,0,0,12.14,13.92,179.6,180,3909.5,2861.59,113,84.31,9.5,13.63
02-Jun-2019 17:14:55.418,189,189,0,0,12.14,13.92,179.6,180,4110.5,2861.59,113,84.31,9.5,14.07
02-Jun-2019 17:14:55.620,189,189,0,0,12.12,13.92,179.6,177.25,4110.5,2870.3,113,83.92,11,14.07
02-Jun-2019 17:14:55.824,189,189,0,0,12.12,13.92,179.6,177.25,4110.5,2870.3,113,83.92,11,14.07
02-Jun-2019 17:14:56.018,189,189,0,0,12.12,13.92,181.4,177.25,4400.5,2870.3,113,84.31,12.5,14.5
02-Jun-2019 17:14:56.218,189,189,0,0,12,13.92,181.4,175.29,4400.5,2867.4,113,84.31,12.5,14.5
02-Jun-2019 17:14:56.424,189,189,0,0,12,13.92,181.4,175.29,4400.5,2867.4,113,84.31,12.5,14.5
02-Jun-2019 17:14:56.619,189,189,0,0,12,13.92,181.4,175.29,4694.5,2867.4,113,84.31,9,14.94
02-Jun-2019 17:14:56.834,189.75,189,0,0,11.93,13.92,181.4,180.78,4694.5,2868.85,113,84.31,9,14.94
02-Jun-2019 17:14:57.019,189.75,189.75,0,0,11.93,13.92,181.4,180.78,4694.5,2868.85,113,84.31,9,15.66
02-Jun-2019 17:14:57.218,189.75,189.75,0,0,11.93,13.92,181.4,180.78,4964.5,2887.7,113,83.92,8,15.66
02-Jun-2019 17:14:57.424,189.75,189.75,0,0,12.01,13.92,181.4,187.45,4964.5,2887.7,113,83.92,8,15.66
02-Jun-2019 17:14:57.619,189.75,189.75,0,0,12.01,13.92,181.4,187.45,4964.5,2887.7,113,83.92,8,15.66
02-Jun-2019 17:14:57.826,189.75,189.75,0,0,12.01,13.92,181.4,187.45,5223.5,2887.7,111.2,84.31,9.5,15.81
02-Jun-2019 17:14:58.054,189.75,189.75,0,0,11.99,13.92,181.4,192.16,5223.5,2858.69,111.2,84.31,9.5,15.81
02-Jun-2019 17:14:58.218,189.75,189.75,0,0,11.99,13.92,181.4,192.16,5375,2858.69,111.2,84.31,9.5,16.39
02-Jun-2019 17:14:58.418,189.75,189.75,0,0,11.89,13.92,181.4,194.12,5375,2877.55,111.2,83.92,9.5,16.39
02-Jun-2019 17:14:58.617,189.75,189.75,0,0,11.89,13.92,181.4,194.12,5375,2877.55,111.2,83.92,9.5,16.39
02-Jun-2019 17:14:58.820,189.75,189.75,0,0,11.93,13.92,181.4,196.86,5552.5,2860.14,111.2,83.92,9.5,16.39
02-Jun-2019 17:14:59.021,189.75,189.75,0,0,11.93,13.92,181.4,196.86,5552.5,2860.14,111.2,83.92,9.5,16.39
02-Jun-2019 17:14:59.232,189.75,189.75,0,0,11.93,13.92,181.4,196.86,5835.5,2860.14,111.2,83.92,10.5,16.24
02-Jun-2019 17:14:59.416,189.75,189.75,0,0,11.91,13.92,181.4,200.78,5835.5,2867.4,111.2,84.31,10.5,16.24
02-Jun-2019 17:14:59.619,189.75,189.75,0,0,11.91,13.92,183.2,200.78,5835.5,2867.4,111.2,84.31,10.5,16.24
02-Jun-2019 17:14:59.819,189.75,189.75,0,0,11.91,13.92,183.2,200.78,6068,2858.69,109.4,83.92,10.5,16.1
02-Jun-2019 17:15:00.034,190.5,189.75,0,0,11.88,13.92,183.2,200.78,6068,2858.69,109.4,83.92,10.5,16.1
02-Jun-2019 17:15:00.217,190.5,190.5,0,0,11.88,13.92,183.2,200.78,6068,2858.69,109.4,83.92,10.5,16.1
02-Jun-2019 17:15:00.416,190.5,190.5,0,0,11.97,13.92,183.2,201.57,6301,2870.3,109.4,84.31,11,15.52
02-Jun-2019 17:15:00.622,190.5,190.5,0,0,11.97,13.92,183.2,201.57,6301,2870.3,109.4,84.31,11,15.52
02-Jun-2019 17:15:00.818,190.5,190.5,0,0,11.97,13.92,183.2,201.57,6430.5,2870.3,109.4,84.31,12,15.37
02-Jun-2019 17:15:01.020,190.5,190.5,0,0,12.05,13.92,183.2,199.61,6430.5,2864.5,109.4,84.31,12,15.37
02-Jun-2019 17:15:01.220,190.5,190.5,0,0,12.05,13.92,183.2,199.61,6583,2864.5,109.4,84.31,8,11.75
02-Jun-2019 17:15:01.416,190.5,190.5,0,0,29.4,13.92,183.2,23.14,6583,2826.79,109.4,83.92,8,11.75
02-Jun-2019 17:15:01.620,0,0,0,0,29.4,13.92,183.2,23.14,6583,2826.79,109.4,83.92,8,11.75
02-Jun-2019 17:15:01.816,0,0,0,0,29.4,13.92,186.8,23.14,5370.5,2844.19,107.6,40,31.5,1.31
02-Jun-2019 17:15:02.019,0,0,0,0,12.06,13.92,186.8,141.18,5370.5,2844.19,107.6,40,31.5,1.31
02-Jun-2019 17:15:02.218,0,0,0,0,12.06,13.92,186.8,141.18,5370.5,2844.19,107.6,40,31.5,1.31
02-Jun-2019 17:15:02.419,0,0,0,0,11.26,13.92,186.8,192.55,5035,2751.37,107.6,84.31,10.5,16.68
02-Jun-2019 17:15:02.621,0,0,0,0,11.26,13.92,186.8,192.55,5035,2751.37,107.6,84.31,10.5,16.68
02-Jun-2019 17:15:02.818,0,0,0,0,11.26,13.92,186.8,192.55,5136,2751.37,107.6,84.31,11,15.95
02-Jun-2019 17:15:03.022,0,0,0,0,12.07,13.92,186.8,191.76,5136,2819.53,107.6,84.31,11,15.95
02-Jun-2019 17:15:03.223,0,0,0,0,12.07,13.92,186.8,191.76,5136,2819.53,107.6,84.31,11,15.95
02-Jun-2019 17:15:03.419,0,0,0,0,11.66,13.92,186.8,191.76,5248.5,2839.84,107.6,83.92,12,16.1
02-Jun-2019 17:15:03.618,0,0,0,0,11.66,13.92,186.8,192.94,5248.5,2839.84,107.6,83.92,12,16.1
02-Jun-2019 17:15:03.820,0,0,0,0,11.66,13.92,188.6,192.94,5248.5,2839.84,107.6,83.92,12,16.1
02-Jun-2019 17:15:04.019,0,0,0,0,11.66,13.92,188.6,192.94,5369.5,2849.99,107.6,84.31,12.5,16.39
02-Jun-2019 17:15:04.219,0,0,0,0,11.5,13.92,188.6,195.29,5369.5,2849.99,107.6,84.31,12.5,16.39
02-Jun-2019 17:15:04.419,0,0,0,0,11.5,13.92,188.6,195.29,5462.5,2879,107.6,84.31,12.5,16.24
02-Jun-2019 17:15:04.618,0,0,0,0,11.36,13.92,188.6,195.29,5462.5,2879,107.6,84.31,12.5,16.24
02-Jun-2019 17:15:04.824,0,0,0,0,11.36,13.92,188.6,195.29,5539,2879,107.6,84.31,12,16.53
02-Jun-2019 17:15:05.027,0,0,0,0,11.48,13.92,188.6,197.65,5539,2880.45,107.6,84.31,12,16.53
02-Jun-2019 17:15:05.221,0,0,0,0,11.48,13.92,188.6,197.65,5539,2880.45,107.6,84.31,12,16.53
02-Jun-2019 17:15:05.419,0,0,0,0,11.52,13.92,188.6,201.18,5664.5,2877.55,107.6,84.31,12,16.82
02-Jun-2019 17:15:05.627,0,0,0,0,11.52,13.92,188.6,201.18,5664.5,2877.55,107.6,84.31,12,16.82
02-Jun-2019 17:15:05.818,0,0,0,0,11.52,13.92,190.4,201.18,5751.5,2877.55,107.6,84.31,12,15.52
02-Jun-2019 17:15:06.021,0,0,0,0,12.28,13.92,190.4,201.18,5751.5,2899.3,107.6,23.14,28.5,15.52
02-Jun-2019 17:15:06.225,0,0,0,0,12.28,13.92,190.4,67.84,5751.5,2899.3,107.6,23.14,28.5,15.52
02-Jun-2019 17:15:06.418,0,0,0,0,12.28,13.92,190.4,67.84,5704.5,2899.3,107.6,17.25,11,-9.72
02-Jun-2019 17:15:06.619,0,0,0,0,19.18,13.92,190.4,25.1,5704.5,2899.3,107.6,17.25,11,-9.72
02-Jun-2019 17:15:06.820,0,0,0,0,19.18,13.92,190.4,25.1,5704.5,2899.3,107.6,17.25,11,-9.72
02-Jun-2019 17:15:07.020,0,0,0,0,19.18,13.92,190.4,25.1,4914.5,2899.3,107.6,18.82,6,-7.98
02-Jun-2019 17:15:07.221,0,0,0,0,29.4,13.92,190.4,25.1,4914.5,2884.8,107.6,18.82,6,-7.98
02-Jun-2019 17:15:07.418,0,0,0,0,29.4,13.92,190.4,25.1,4914.5,2884.8,107.6,18.82,6,-7.98
02-Jun-2019 17:15:07.617,0,0,0,0,29.4,13.92,194,25.1,4136.5,2884.8,107.6,17.65,3.5,-8.12
02-Jun-2019 17:15:07.824,0,0,0,0,29.4,13.92,194,24.71,4136.5,2879,107.6,17.65,3.5,-8.12
02-Jun-2019 17:15:08.016,0,0,0,0,29.4,13.92,194,24.71,4136.5,2879,107.6,17.65,3.5,-8.12
02-Jun-2019 17:15:08.227,0,0,0,0,29.4,13.92,194,24.71,3412,2876.1,107.6,16.86,6,-8.56
02-Jun-2019 17:15:08.430,0,0,0,0,29.4,13.92,194,23.92,3412,2876.1,107.6,16.86,6,-8.56
02-Jun-2019 17:15:08.621,0,0,0,0,29.4,13.92,194,23.92,3412,2876.1,107.6,16.86,6,-8.56
02-Jun-2019 17:15:08.818,0,0,0,0,29.4,13.92,194,25.88,2710.5,2873.2,107.6,16.08,3.5,-8.27
02-Jun-2019 17:15:09.023,0,0,0,0,29.4,13.92,194,25.88,2710.5,2873.2,107.6,16.08,3.5,-8.27
02-Jun-2019 17:15:09.219,0,0,0,0,29.4,13.92,194,24.31,2260.5,2868.85,107.6,14.9,-3,-8.41
02-Jun-2019 17:15:09.416,0,0,0,0,29.4,13.92,194,24.31,2260.5,2868.85,107.6,14.9,-3,-8.41
02-Jun-2019 17:15:09.616,0,0,0,0,29.4,13.92,194,24.31,1825.5,2868.85,107.6,14.12,-10.5,-8.41
02-Jun-2019 17:15:09.821,0,0,0,0,29.4,13.92,194,20.39,1825.5,2844.19,107.6,14.12,-10.5,-8.41
02-Jun-2019 17:15:10.023,0,0,0,0,29.4,13.92,194,20.39,1825.5,2844.19,107.6,14.12,-10.5,-8.41
02-Jun-2019 17:15:10.237,0,0,0,0,25.22,13.92,194,19.22,1420,2784.72,107.6,12.94,3.5,-9.14
02-Jun-2019 17:15:10.420,0,0,0,0,25.22,13.92,194,19.22,1420,2784.72,107.6,12.94,3.5,-9.14
02-Jun-2019 17:15:10.623,0,0,0,0,12.33,13.92,194,19.22,1248,2742.66,107.6,12.94,1.5,-8.99
02-Jun-2019 17:15:10.818,0,0,0,0,12.33,13.92,194,20.39,1248,2742.66,107.6,12.94,1.5,-8.99
02-Jun-2019 17:15:11.018,0,0,0,0,12.33,13.92,194,20.39,1062,2742.66,107.6,12.94,1.5,-8.7
02-Jun-2019 17:15:11.232,0,0,0,0,10.95,13.92,194,23.92,1062,2684.65,107.6,12.94,1.5,-8.7
02-Jun-2019 17:15:11.419,0,0,0,0,10.95,13.92,194,23.92,1062,2684.65,107.6,12.94,1.5,-8.7
02-Jun-2019 17:15:11.619,0,0,0,0,10.95,13.92,194,23.92,1062,2684.65,107.6,12.94,1.5,-7.83
02-Jun-2019 17:15:11.825,0,0,0,0,11.95,13.92,194,23.92,973,2597.63,107.6,12.94,-1.5,-7.83
02-Jun-2019 17:15:12.018,0,0,0,0,11.95,13.92,194,27.06,973,2597.63,107.6,12.94,-1.5,-7.83
02-Jun-2019 17:15:12.224,0,0,0,0,11.95,13.92,194,27.06,934.5,2597.63,107.6,12.94,-2.5,-7.4
02-Jun-2019 17:15:12.423,0,0,0,0,12.92,13.92,194,27.84,934.5,2536.71,107.6,12.94,-2.5,-7.4
02-Jun-2019 17:15:12.618,0,0,0,0,12.92,13.92,194,27.84,934.5,2536.71,107.6,12.94,-2.5,-7.4
02-Jun-2019 17:15:12.818,0,0,0,0,13.29,13.92,194,27.84,952.5,2445.34,107.6,12.94,-4.5,-7.4
02-Jun-2019 17:15:13.019,0,0,0,0,13.29,13.92,194,27.84,952.5,2445.34,107.6,12.94,-4.5,-7.4
02-Jun-2019 17:15:13.231,0,0,0,0,13.29,13.92,194,27.84,952.5,2445.34,107.6,12.94,-4.5,-7.4
02-Jun-2019 17:15:13.416,0,0,0,0,13.29,13.92,194,27.84,943,2445.34,109.4,12.94,-2.5,-7.4
02-Jun-2019 17:15:13.617,0,0,0,0,13.41,13.92,194,27.84,943,2380.07,109.4,12.94,-2.5,-7.4
02-Jun-2019 17:15:13.831,0,0,0,0,13.41,13.92,194,27.84,943,2380.07,109.4,12.94,-2.5,-7.4
02-Jun-2019 17:15:14.016,0,0,0,0,13.51,13.92,194,27.84,947.5,2335.11,109.4,12.94,-2.5,-7.4
02-Jun-2019 17:15:14.217,0,0,0,0,13.51,13.92,194,27.84,947.5,2335.11,109.4,12.94,-2.5,-7.4
02-Jun-2019 17:15:14.418,0,0,0,0,13.51,13.92,194,27.84,952,2268.39,109.4,12.94,-2.5,-7.4
02-Jun-2019 17:15:14.620,0,0,0,0,13.67,13.92,194,28.24,952,2268.39,109.4,12.94,-2.5,-7.4
02-Jun-2019 17:15:14.819,0,0,0,0,13.67,13.92,194,28.24,952,2268.39,109.4,12.94,-2.5,-7.4
02-Jun-2019 17:15:15.020,0,0,0,0,13.67,13.92,194,28.24,937.5,2268.39,109.4,12.94,-2.5,-7.25
02-Jun-2019 17:15:15.218,0,0,0,0,14.08,13.92,194,28.24,937.5,2178.47,109.4,12.94,-1.5,-7.25
02-Jun-2019 17:15:15.419,0,0,0,0,14.08,13.92,194,28.63,937.5,2178.47,109.4,12.94,-1.5,-7.25
02-Jun-2019 17:15:15.619,0,0,0,0,14.08,13.92,194,28.63,944.5,2097.25,109.4,12.94,-3,-7.25
02-Jun-2019 17:15:15.820,0,0,0,0,14.3,13.92,194,28.63,944.5,2097.25,109.4,12.94,-3,-7.25
02-Jun-2019 17:15:16.020,0,0,0,0,14.17,13.92,194,28.63,942,2063.89,109.4,12.94,-3,-7.25
